DW6119 Weather Reports


Display with metric or nautical units.
time (UTC)temp
F
wind
direction
speed
MPH
gust
MPH
rain 1hr
in
rain 24hr
in
rain mn
in
humidity
%
barometer
mb
20260509110412 75 270 2.0 7.0 0.00 0.00 0.00 41 1016.4
20260509105913 75 240 2.0 7.0 0.00 0.00 0.00 41 1016.6
20260509105413 75 238 3.0 5.0 0.00 0.00 0.00 42 1016.7
20260509104912 75 248 1.0 7.0 0.00 0.00 0.00 42 1016.6
20260509103911 74 254 2.0 7.0 0.00 0.00 0.00 45 1016.9
20260509103412 73 269 1.0 7.0 0.00 0.00 0.00 46 1016.9
20260509102912 74 248 3.0 7.0 0.00 0.00 0.00 46 1017.3
20260509102412 73 254 1.0 3.0 0.00 0.00 0.00 48 1017.3
20260509101912 73 234 2.0 3.0 0.00 0.00 0.00 46 1017.3
20260509101412 73 308 0.0 3.0 0.00 0.00 0.00 49 1017.5
20260509095912 72 63 0.0 7.0 0.00 0.00 0.00 49 1017.6
20260509094912 71 258 3.0 7.0 0.00 0.00 0.00 51 1017.6
20260509093914 71 74 1.0 3.0 0.00 0.00 0.00 53 1017.9
20260509092912 70 64 1.0 5.0 0.00 0.00 0.00 53 1017.9
20260509092411 69 186 0.0 5.0 0.00 0.00 0.00 56 1017.9
20260509091912 69 248 2.0 2.0 0.00 0.00 0.00 56 1017.9
20260509091413 69 12 0.0 1.0 0.00 0.00 0.00 56 1018.0
20260509090912 69 252 0.0 2.0 0.00 0.00 0.00 56 1018.3
20260509090412 68 328 0.0 2.0 0.00 0.00 0.00 58 1018.3
20260509085911 68 261 0.0 3.0 0.00 0.00 0.00 59 1018.6
20260509085412 68 56 1.0 3.0 0.00 0.00 0.00 59 1018.6
20260509084912 68 60 1.0 3.0 0.00 0.00 0.00 58 1018.5
20260509084412 68 41 1.0 3.0 0.00 0.00 0.00 60 1018.4
20260509083912 67 48 0.0 3.0 0.00 0.00 0.00 60 1018.6
20260509083413 67 95 1.0 2.0 0.00 0.00 0.00 61 1018.7
20260509082912 67 46 0.0 2.0 0.00 0.00 0.00 61 1018.6
20260509082413 66 61 0.0 2.0 0.00 0.00 0.00 62 1018.6
20260509081912 66 30 1.0 2.0 0.00 0.00 0.00 62 1018.6
20260509081412 66 47 0.0 2.0 0.00 0.00 0.00 62 1018.9
20260509080412 65 45 0.0 2.0 0.00 0.00 0.00 62 1019.2
20260509075912 65 44 0.0 2.0 0.00 0.00 0.00 63 1019.0
20260509075412 64 48 0.0 2.0 0.00 0.00 0.00 65 1019.0
20260509074412 64 74 0.0 2.0 0.00 0.00 0.00 67 1019.3
20260509073912 63 50 0.0 2.0 0.00 0.00 0.00 67 1019.3
20260509073413 63 39 0.0 2.0 0.00 0.00 0.00 68 1019.3
20260509072911 62 61 1.0 2.0 0.00 0.00 0.00 69 1019.3
20260509072412 62 49 1.0 3.0 0.00 0.00 0.00 69 1019.3
20260509071412 62 61 1.0 2.0 0.00 0.00 0.00 70 1019.3
20260509070914 62 35 0.0 2.0 0.00 0.00 0.00 70 1019.3
20260509070411 61 24 0.0 2.0 0.00 0.00 0.00 72 1019.6
20260509065911 60 48 1.0 7.0 0.00 0.00 0.00 72 1019.6
20260509065412 60 46 0.0 7.0 0.00 0.00 0.00 72 1019.5
20260509064912 60 35 0.0 7.0 0.00 0.00 0.00 73 1019.6
20260509064411 60 16 1.0 7.0 0.00 0.00 0.00 73 1019.6
20260509063913 59 111 1.0 7.0 0.00 0.00 0.00 74 1019.6
20260509063412 59 30 1.0 7.0 0.00 0.00 0.00 73 1019.6
20260509062911 59 64 2.0 3.0 0.00 0.00 0.00 73 1019.6
20260509062412 59 38 1.0 3.0 0.00 0.00 0.00 75 1019.6
20260509061911 58 337 0.0 7.0 0.00 0.00 0.00 76 1019.6
20260509061411 58 28 1.0 8.0 0.00 0.00 0.00 77 1019.6
20260509060912 58 102 1.0 8.0 0.00 0.00 0.00 77 1019.6
20260509060411 58 73 2.0 8.0 0.00 0.00 0.00 77 1019.4
20260509055913 57 94 1.0 8.0 0.00 0.00 0.00 78 1019.6
20260509055414 57 124 3.0 8.0 0.00 0.00 0.00 79 1019.4
20260509054912 56 62 2.0 7.0 0.00 0.00 0.00 80 1019.6
20260509054412 56 80 2.0 5.0 0.00 0.00 0.00 81 1019.6
20260509052412 56 337 0.0 2.0 0.00 0.00 0.00 81 1019.6
20260509051912 55 69 0.0 2.0 0.00 0.00 0.00 81 1019.6
20260509051413 56 65 0.0 2.0 0.00 0.00 0.00 80 1019.6
20260509050913 56 61 1.0 2.0 0.00 0.00 0.00 80 1019.6
20260509050412 56 244 0.0 2.0 0.00 0.00 0.00 80 1019.6
20260509045912 55 197 0.0 3.0 0.00 0.00 0.00 81 1019.6
20260509045412 55 157 1.0 3.0 0.00 0.00 0.00 82 1019.6
20260509044912 55 66 0.0 2.0 0.00 0.00 0.00 82 1019.6
20260509044412 55 74 0.0 2.0 0.00 0.00 0.00 82 1019.3
20260509043912 54 164 1.0 2.0 0.00 0.00 0.00 84 1019.6
20260509043412 54 72 1.0 2.0 0.00 0.00 0.00 84 1019.6
20260509042412 54 83 1.0 2.0 0.00 0.00 0.00 82 1019.5
20260509040912 53 135 1.0 1.0 0.00 0.00 0.00 84 1019.6
20260509040413 53 64 0.0 1.0 0.00 0.00 0.00 85 1019.6
20260509035412 54 252 0.0 1.0 0.00 0.00 0.00 84 1019.3
20260509034912 54 217 0.0 1.0 0.00 0.00 0.00 83 1019.5
20260509034412 54 106 0.0 1.0 0.00 0.00 0.00 83 1019.5
20260509033913 55 243 0.0 2.0 0.00 0.00 0.00 83 1019.4
20260509033412 55 224 0.0 2.0 0.00 0.00 0.00 82 1019.6
20260509032912 55 207 0.0 3.0 0.00 0.00 0.00 82 1019.6
20260509032412 55 235 0.0 3.0 0.00 0.00 0.00 82 1019.3
20260509031913 55 161 1.0 3.0 0.00 0.00 0.00 82 1019.3
20260509031412 55 179 0.0 3.0 0.00 0.00 0.00 83 1019.3
20260509030912 54 186 0.0 2.0 0.00 0.00 0.00 84 1019.2
20260509030412 54 253 0.0 2.0 0.00 0.00 0.00 85 1019.5
20260509025914 54 250 0.0 2.0 0.00 0.00 0.00 85 1019.3
20260509025413 54 57 0.0 1.0 0.00 0.00 0.00 84 1019.3
20260509024912 54 64 0.0 1.0 0.00 0.00 0.00 84 1019.0
20260509024412 54 324 0.0 1.0 0.00 0.00 0.00 84 1019.3
20260509023912 54 72 0.0 1.0 0.00 0.00 0.00 83 1019.2
20260509023412 54 244 1.0 1.0 0.00 0.00 0.00 84 1019.3
20260509022914 54 180 0.0 1.0 0.00 0.00 0.00 85 1019.1
20260509021912 53 242 0.0 1.0 0.00 0.00 0.00 84 1019.3
20260509021412 54 69 0.0 1.0 0.00 0.00 0.00 85 1019.3
20260509020913 54 240 0.0 1.0 0.00 0.00 0.00 85 1019.3
20260509020413 54 246 0.0 1.0 0.00 0.00 0.00 84 1019.3
20260509014915 54 251 0.0 1.0 0.00 0.00 0.00 83 1019.3
20260509014413 54 252 0.0 1.0 0.00 0.00 0.00 84 1019.3
20260509013412 55 263 0.0 1.0 0.00 0.00 0.00 84 1019.0
20260509012912 55 94 0.0 1.0 0.00 0.00 0.00 84 1019.0
20260509012413 55 136 0.0 1.0 0.00 0.00 0.00 83 1019.0
20260509011913 55 248 0.0 2.0 0.00 0.00 0.00 83 1019.0
20260509010912 55 255 1.0 2.0 0.00 0.00 0.00 83 1019.0
20260509010412 55 248 0.0 1.0 0.00 0.00 0.00 84 1019.0
20260509005912 55 246 0.0 1.0 0.00 0.00 0.00 84 1019.0
20260509005412 55 237 0.0 1.0 0.00 0.00 0.00 83 1018.7
20260509004914 55 230 0.0 1.0 0.00 0.00 0.00 83 1019.0
20260509004413 55 107 0.0 1.0 0.00 0.00 0.00 83 1019.0
20260509003912 55 169 0.0 1.0 0.00 0.00 0.00 83 1019.0
20260509003412 55 255 1.0 1.0 0.00 0.00 0.00 84 1018.8
20260509002913 55 253 0.0 1.0 0.00 0.00 0.00 84 1019.0
20260509001914 55 247 0.0 1.0 0.00 0.00 0.00 83 1018.7
20260509001413 55 63 0.0 0.0 0.00 0.00 0.00 83 1018.9
20260509000912 55 69 0.0 1.0 0.00 0.00 0.00 83 1018.9
20260509000412 56 71 0.0 1.0 0.00 0.00 0.00 83 1018.6
20260508235412 56 253 0.0 1.0 0.00 0.00 0.00 82 1018.6
20260508234913 56 93 0.0 0.0 0.00 0.00 0.00 82 1018.6
20260508234412 56 93 0.0 0.0 0.00 0.00 0.00 82 1019.0
20260508233913 56 93 0.0 1.0 0.00 0.00 0.00 82 1019.0
20260508233413 56 93 0.0 1.0 0.00 0.00 0.00 82 1018.6
20260508232913 56 93 1.0 1.0 0.00 0.00 0.00 81 1018.6
20260508232413 57 97 0.0 1.0 0.00 0.00 0.00 81 1018.6
20260508231414 57 163 0.0 1.0 0.00 0.00 0.00 79 1018.6
20260508230912 57 195 0.0 1.0 0.00 0.00 0.00 79 1018.6
20260508230412 57 131 0.0 1.0 0.00 0.00 0.00 79 1018.8
20260508225913 58 202 0.0 1.0 0.00 0.00 0.00 78 1019.0
20260508225412 57 198 0.0 1.0 0.00 0.00 0.00 77 1018.6
20260508224912 57 128 0.0 1.0 0.00 0.00 0.00 78 1018.6
20260508224412 57 145 0.0 0.0 0.00 0.00 0.00 79 1018.6
20260508223913 57 126 0.0 0.0 0.00 0.00 0.00 79 1018.7
20260508223413 57 102 0.0 1.0 0.00 0.00 0.00 79 1018.8
20260508222912 57 132 0.0 1.0 0.00 0.00 0.00 79 1018.6
20260508222412 57 128 0.0 1.0 0.00 0.00 0.00 79 1018.6
20260508221412 57 249 0.0 1.0 0.00 0.00 0.00 79 1018.6
20260508220913 58 75 0.0 1.0 0.00 0.00 0.00 78 1018.6
20260508215913 58 82 1.0 1.0 0.00 0.00 0.00 78 1018.6
20260508215415 58 183 0.0 0.0 0.00 0.00 0.00 78 1018.6
20260508214913 58 183 0.0 1.0 0.00 0.00 0.00 77 1018.4
20260508213913 58 76 0.0 1.0 0.00 0.00 0.00 77 1018.3
20260508213413 58 80 1.0 1.0 0.00 0.00 0.00 77 1018.3
20260508212912 58 242 0.0 1.0 0.00 0.00 0.00 78 1018.3
20260508212412 58 60 0.0 1.0 0.00 0.00 0.00 77 1018.3
20260508211914 59 86 0.0 1.0 0.00 0.00 0.00 77 1018.3
20260508211412 59 137 0.0 0.0 0.00 0.00 0.00 77 1018.3
20260508210913 59 137 0.0 0.0 0.00 0.00 0.00 77 1018.3
20260508210412 59 173 0.0 0.0 0.00 0.00 0.00 76 1018.3
20260508205912 59 230 0.0 1.0 0.00 0.00 0.00 75 1018.3
20260508205413 60 230 0.0 1.0 0.00 0.00 0.00 76 1018.3
20260508204914 60 177 0.0 1.0 0.00 0.00 0.00 75 1018.2
20260508204412 60 170 0.0 0.0 0.00 0.00 0.00 75 1017.9
20260508203913 60 170 0.0 1.0 0.00 0.00 0.00 75 1018.1
20260508202912 60 260 0.0 1.0 0.00 0.00 0.00 75 1017.9
20260508202412 60 99 0.0 1.0 0.00 0.00 0.00 74 1017.9
20260508201913 60 111 0.0 1.0 0.00 0.00 0.00 74 1017.6
20260508201413 60 249 0.0 1.0 0.00 0.00 0.00 74 1017.9
20260508200912 61 193 0.0 1.0 0.00 0.00 0.00 73 1017.6
20260508200412 61 314 0.0 2.0 0.00 0.00 0.00 72 1017.8
20260508195914 61 94 0.0 2.0 0.00 0.00 0.00 72 1017.6
20260508195413 61 69 1.0 2.0 0.00 0.00 0.00 72 1017.6
20260508194913 61 253 0.0 1.0 0.00 0.00 0.00 73 1017.6
20260508193913 61 240 0.0 1.0 0.00 0.00 0.00 72 1017.3
20260508193413 61 240 0.0 1.0 0.00 0.00 0.00 73 1017.3
20260508192912 62 81 0.0 1.0 0.00 0.00 0.00 72 1017.3
20260508191913 62 76 1.0 1.0 0.00 0.00 0.00 69 1016.9
20260508191415 63 139 0.0 0.0 0.00 0.00 0.00 70 1016.9
20260508190914 63 184 0.0 0.0 0.00 0.00 0.00 69 1016.9
20260508190413 63 229 0.0 1.0 0.00 0.00 0.00 69 1016.9
20260508185913 63 88 0.0 1.0 0.00 0.00 0.00 69 1016.7
20260508185412 63 77 0.0 1.0 0.00 0.00 0.00 68 1016.8
20260508184912 64 172 0.0 0.0 0.00 0.00 0.00 68 1016.6
20260508184413 64 211 0.0 0.0 0.00 0.00 0.00 68 1016.6
20260508182913 65 227 0.0 1.0 0.00 0.00 0.00 66 1016.3
20260508182413 65 78 0.0 1.0 0.00 0.00 0.00 65 1016.0
20260508181912 66 95 0.0 2.0 0.00 0.00 0.00 67 1016.1
20260508181412 66 248 0.0 2.0 0.00 0.00 0.00 65 1015.9
20260508180912 65 86 0.0 1.0 0.00 0.00 0.00 64 1016.1
20260508180412 66 228 0.0 1.0 0.00 0.00 0.00 66 1015.9
20260508175912 66 150 0.0 1.0 0.00 0.00 0.00 64 1015.9
20260508175412 67 196 0.0 1.0 0.00 0.00 0.00 64 1015.9
20260508174913 67 77 0.0 1.0 0.00 0.00 0.00 62 1015.6
20260508174412 68 206 0.0 3.0 0.00 0.00 0.00 62 1015.6
20260508173913 68 239 0.0 3.0 0.00 0.00 0.00 59 1015.6
20260508173412 68 230 1.0 3.0 0.00 0.00 0.00 57 1015.6
20260508172913 68 201 0.0 2.0 0.00 0.00 0.00 59 1015.6
20260508172413 68 210 1.0 2.0 0.00 0.00 0.00 57 1015.5
20260508171913 69 187 0.0 1.0 0.00 0.00 0.00 59 1015.6
20260508170912 69 249 0.0 3.0 0.00 0.00 0.00 56 1015.5
20260508170412 69 256 1.0 3.0 0.00 0.00 0.00 56 1015.2
20260508165912 70 253 1.0 3.0 0.00 0.00 0.00 55 1015.3
20260508165415 70 247 1.0 3.0 0.00 0.00 0.00 55 1015.6
20260508164913 70 238 1.0 3.0 0.00 0.00 0.00 55 1015.2
20260508164414 70 252 0.0 3.0 0.00 0.00 0.00 54 1015.2
20260508162912 70 255 1.0 3.0 0.00 0.00 0.00 53 1015.2
20260508162413 70 249 1.0 3.0 0.00 0.00 0.00 52 1015.2
20260508161912 70 252 1.0 3.0 0.00 0.00 0.00 53 1015.2
20260508161412 71 242 1.0 3.0 0.00 0.00 0.00 53 1015.1
20260508160412 71 252 1.0 3.0 0.00 0.00 0.00 53 1015.2
20260508155913 71 248 2.0 3.0 0.00 0.00 0.00 53 1015.2
20260508155414 71 243 2.0 5.0 0.00 0.00 0.00 53 1015.2
20260508154913 71 244 2.0 5.0 0.00 0.00 0.00 53 1015.2
20260508154413 71 255 2.0 5.0 0.00 0.00 0.00 54 1015.2
20260508153913 71 236 2.0 5.0 0.00 0.00 0.00 54 1014.9
20260508153414 71 228 3.0 5.0 0.00 0.00 0.00 54 1015.2
20260508152412 71 243 3.0 7.0 0.00 0.00 0.00 54 1015.2
20260508151913 72 241 4.0 7.0 0.00 0.00 0.00 53 1015.0
20260508151412 71 239 2.0 8.0 0.00 0.00 0.00 54 1015.2
20260508150913 71 239 3.0 9.0 0.00 0.00 0.00 54 1015.2
20260508150414 71 212 3.0 9.0 0.00 0.00 0.00 54 1015.2
20260508145912 71 255 3.0 9.0 0.00 0.00 0.00 55 1015.2
20260508144912 71 260 5.0 8.0 0.00 0.00 0.00 54 1015.2
20260508144416 72 252 3.0 7.0 0.00 0.00 0.00 54 1015.2
20260508143915 72 281 2.0 8.0 0.00 0.00 0.00 53 1015.2
20260508143413 72 273 3.0 8.0 0.00 0.00 0.00 53 1014.9
20260508142912 73 206 3.0 8.0 0.00 0.00 0.00 52 1015.2
20260508141913 74 263 3.0 7.0 0.00 0.00 0.00 49 1015.2
20260508141413 73 275 2.0 7.0 0.00 0.00 0.00 50 1015.2
20260508140915 74 217 3.0 7.0 0.00 0.00 0.00 48 1015.2
20260508140413 75 222 3.0 9.0 0.00 0.00 0.00 48 1014.9
20260508135914 74 239 2.0 9.0 0.00 0.00 0.00 49 1015.2
20260508135413 73 240 5.0 9.0 0.00 0.03 0.00 49 1015.2
20260508134913 74 237 5.0 9.0 0.00 0.13 0.00 49 1015.2
20260508134412 74 245 3.0 9.0 0.00 0.15 0.00 50 1015.2
20260508133913 73 255 3.0 9.0 0.00 0.15 0.00 50 1015.2
20260508133412 73 247 2.0 9.0 0.00 0.16 0.00 49 1015.5
20260508132913 73 251 3.0 7.0 0.00 0.16 0.00 49 1015.6
20260508132414 73 246 3.0 7.0 0.00 0.16 0.00 49 1015.6
20260508131914 73 244 3.0 7.0 0.00 0.16 0.00 50 1015.6
20260508131413 73 261 5.0 9.0 0.00 0.16 0.00 50 1015.6
20260508130912 74 255 1.0 9.0 0.00 0.16 0.00 50 1015.6
20260508130412 73 243 3.0 9.0 0.00 0.16 0.00 51 1015.6
20260508125913 73 248 3.0 7.0 0.00 0.16 0.00 51 1015.6
20260508125412 73 264 2.0 9.0 0.00 0.16 0.00 51 1015.6
20260508124913 73 253 3.0 9.0 0.00 0.16 0.00 50 1015.6
20260508124412 73 253 2.0 9.0 0.00 0.16 0.00 50 1015.9
20260508123414 73 234 3.0 8.0 0.00 0.16 0.00 50 1015.7
20260508122912 73 247 2.0 8.0 0.00 0.16 0.00 50 1015.7
20260508122413 72 223 3.0 8.0 0.00 0.16 0.00 51 1015.6
20260508121912 72 254 3.0 8.0 0.00 0.16 0.00 50 1015.9
20260508121412 72 273 4.0 8.0 0.00 0.16 0.00 50 1015.9
20260508120912 73 240 2.0 8.0 0.00 0.16 0.00 50 1015.7
20260508120413 73 186 1.0 9.0 0.00 0.16 0.00 50 1015.6
20260508115914 72 241 4.0 9.0 0.00 0.16 0.00 50 1015.7
20260508115413 72 256 2.0 9.0 0.00 0.16 0.00 51 1015.9
20260508114912 72 244 4.0 8.0 0.00 0.16 0.00 52 1015.9
20260508114414 72 235 4.0 8.0 0.00 0.16 0.00 50 1015.9
20260508113913 72 213 4.0 8.0 0.00 0.17 0.00 49 1015.9
20260508113415 72 247 2.0 8.0 0.00 0.17 0.00 49 1015.9
20260508112912 72 283 3.0 8.0 0.00 0.17 0.00 50 1015.9
20260508111913 72 237 2.0 8.0 0.00 0.17 0.00 51 1015.9